Flag for U.S.A. Weather past 2 weeks in Stamford, Connecticut, U.S.A.

Now
67 °F

Partly sunny.


Feels Like: 67 °F
Forecast: 62 / 82 °F
Wind: 3 mph from Southeast

Location: Westchester County Airport

Current Time: Aug 20, 2014 at 9:10:15 AM

Latest Report: Aug 20, 2014 at 7:56 AM


Visibility: 7 mi

Pressure: 29.99 "Hg

Humidity: 93%

Dew point: 65 °F

Location of StamfordLocation

Historic Weather in Stamford — Graph

°F

Stamford temperature yesterday

Maximum temperature yesterday: 78 °F (at 2:56 PM)
Minimum temperature yesterday: 60 °F (at 5:56 AM)
Average temperature yesterday: 69 °F

Past Weeks' High & Low Weather Summary

 TemperatureHumidityPressure
High87 °F (Aug 5, 3:56 PM)97% (Aug 13, 9:56 AM)30.14 "Hg (Aug 13, 9:56 AM)
Low55 °F (Aug 15, 5:56 AM)31% (Aug 10, 2:56 PM)29.64 "Hg (Aug 13, 3:56 PM)
Average70 °F67%29.94 "Hg
* Reported Aug 5 7:56 AM — Aug 20 7:56 AM, Stamford, Weather by CustomWeather, © 2014

Note: Actual official high and low records may vary slightly from our data, if they occured in-between our weather recording intervals... More about our weather records

Advertising

Stamford weather history for previous 24 hours

 ConditionsComfort  
Time TempWeatherWind HumidityBarometerVisibility
7:56 AM
Aug 20
67 °FPartly sunny.3 mph93%29.99 "Hg7 mi
6:56 AM67 °FPartly cloudy.No wind93%29.97 "Hg7 mi
5:56 AM65 °FPassing clouds.3 mph94%29.96 "Hg7 mi
4:56 AM64 °FPassing clouds.No wind94%29.95 "Hg8 mi
3:56 AM63 °FPassing clouds.No wind97%29.94 "Hg8 mi
2:56 AM63 °FFog.No wind93%29.94 "Hg6 mi
1:56 AM64 °FClear.No wind97%29.93 "Hg8 mi
12:56 AM65 °FClear.No wind94%29.94 "Hg7 mi
11:56 PM
Aug 19
64 °FClear.No wind94%29.94 "Hg10 mi
10:56 PM64 °FClear.3 mph94%29.93 "Hg10 mi
9:56 PM65 °FClear.3 mph91%29.92 "Hg10 mi
8:56 PM66 °FClear.No wind84%29.92 "Hg10 mi
7:56 PM69 °FSunny.3 mph73%29.90 "Hg10 mi
6:56 PM73 °FSunny.7 mph64%29.89 "Hg10 mi
5:56 PM75 °FPassing clouds.9 mph58%29.88 "Hg10 mi
4:56 PM78 °FPassing clouds.7 mph46%29.88 "Hg10 mi
3:56 PM77 °FScattered clouds.No wind47%29.89 "Hg10 mi
2:56 PM78 °FPassing clouds.6 mph48%29.89 "Hg10 mi
1:56 PM76 °FPassing clouds.5 mph45%29.90 "Hg10 mi
12:56 PM76 °FPassing clouds.8 mph50%29.90 "Hg10 mi
11:56 AM74 °FPassing clouds.No wind50%29.93 "Hg10 mi
10:56 AM73 °FPassing clouds.7 mph53%29.92 "Hg10 mi
9:56 AM70 °FSunny.8 mph53%29.91 "Hg10 mi
Weather by CustomWeather, © 2014

See weather overviewHow to use our weather pages